Lexington Weather

Lexington, Massachusetts, USA

32°F
11/15/2019 2:45am 
  • Lexington Conditions: Mostly cloudy
  • Temperature: 32.2°F / 0.1°CWarmer 1.6°F than last hour.
  • Dew Point: 29.7°FIncreased 1.7°Fsince last hour.
  • Relative Humidity: 90
  • Wind: Calm, 10-min avg: Calm, gust: 3 mph
  • Barometer: 30.18 in Steady
  • Visibility: 10 miles
  • Snow Today: 0.0 in
  •   

Regional Weather Roundup
for Boston / Norton, MA

        
000
ASUS41 KBOX 130100
RWRBOX

REGIONAL WEATHER ROUNDUP
NATIONAL WEATHER SERVICE BOSTON/NORTON MA
800 PM EST TUE NOV 12 2019

NOTE:  "FAIR" INDICATES FEW OR NO CLOUDS BELOW 12,000 FEET WITH NO 
SIGNIFICANT WEATHER AND/OR OBSTRUCTIONS TO VISIBILITY.

MAZALL-130200-
EASTERN MASSACHUSETTS
  
CITY           SKY/WX    TMP DP  RH WIND       PRES   REMARKS
BOSTON         CLOUDY    32  13  45 NW16      29.94R WCI  21          
BEVERLY        FAIR      29  12  49 NW18G25   29.91S WCI  16          
LAWRENCE       FAIR      27   9  46 NW15      29.94S WCI  15          
BEDFORD        CLOUDY    29  14  53 W13G21    29.93R WCI  19          
BLUE HILL      NOT AVBL                                               
NORWOOD        FAIR      32  16  51 NW10      29.94S WCI  24          
MARSHFIELD     NOT AVBL                                               
PLYMOUTH       FAIR      30  19  63 NW15G22   29.94R WCI  19          
TAUNTON        FAIR      32  19  58 VRB7      29.94R WCI  26          
NEW BEDFORD    FAIR      30  22  72 NW8       29.95R WCI  22          
$$

MAZALL-130200-
CAPE COD AND THE ISLANDS
  
CITY           SKY/WX    TMP DP  RH WIND       PRES   REMARKS
FALMOUTH       CLOUDY    28  21  74 NW13G18   29.93R WCI  18          
HYANNIS        NOT AVBL                                               
CHATHAM        LGT SNOW  31  27  85 NW12G22   29.90R FOG     WCI  22  
PROVINCETOWN   CLOUDY    32  24  72 NW28G35   29.91S WCI  18          
NANTUCKET      LGT SNOW  31  27  85 NW26G40   29.91R FOG     WCI  17  
MARTHAS VNYRD  CLOUDY    31  22  69 NW16      29.92R WCI  20          
$$
 
MAZALL-130200-
CENTRAL AND WESTERN MASSACHUSETTS
  
CITY           SKY/WX    TMP DP  RH WIND       PRES   REMARKS
WORCESTER      FAIR      23   4  44 NW17G37   29.91R WCI   9          
FITCHBURG      FAIR      26   9  48 NW15G25   29.95R WCI  14          
ORANGE         FAIR      25   6  44 NW16G22   29.99R WCI  12          
SPRINGFIELD    PTCLDY    25   7  47 NW15G25   30.01R WCI  12          
WESTFIELD      FAIR      24   7  48 NW15G25   30.03R WCI  11          
NORTH ADAMS    FLURRIES  20   8  60 W15G25    30.01R WCI   6          
PITTSFIELD     FAIR      19   7  59 NW14G25   29.97R WCI   6          
$$
 
RIZALL-130200-
RHODE ISLAND
  
CITY           SKY/WX    TMP DP  RH WIND       PRES   REMARKS
PROVIDENCE     CLOUDY    30  14  51 NW15G25   29.98R WCI  19          
NEWPORT        FAIR      31  14  49 NW21G33   29.96R WCI  18          
BLOCK ISLAND   FAIR      29  15  56 NW17G29   30.00R WCI  17          
SMITHFIELD     FAIR      27  15  61 W14       29.95R WCI  16          
WESTERLY       FAIR      31  12  45 VRB6G22   30.00R WCI  25          
$$
 
CTZALL-130200-
CONNECTICUT
  
CITY           SKY/WX    TMP DP  RH WIND       PRES   REMARKS
BRADLEY INTL   MOCLDY    27   7  42 NW20G32   30.04R WCI  13          
HARTFORD       FAIR      27   6  41 NW16G26   30.07R WCI  15          
BRIDGEPORT     FAIR      29  10  45 NW14G22   30.07R WCI  18          
DANBURY        FAIR      26   6  42 NW9       30.07R WCI  17          
GROTON         NOT AVBL                                               
NEW HAVEN      FAIR      31   8  38 NW14G25   30.06R WCI  21          
CHESTER        FAIR      27   3  36 NW20G29   30.01R WCI  13          
MERIDEN        FAIR      26   4  38 NW15G26   30.06R WCI  14          
WILLIMANTIC    FAIR      27  10  49 NW16G23   30.03R WCI  15          
OXFORD         FAIR      24   9  52 NW10G20   30.03R WCI  14          
$$

MEZ002-015-021-024-NHZ003-005-008-011-012-014-VTZ005-008-130200-
NORTHERN NEW ENGLAND
  
CITY           SKY/WX    TMP DP  RH WIND       PRES   REMARKS
PORTLAND ME    FAIR      24  16  71 W12       29.87R WCI  13          
BANGOR ME      CLOUDY    24  17  74 NW9       29.79R WCI  14          
CONCORD NH     LGT SNOW  24  16  71 NW20G25   29.92R WCI  10          
MANCHESTER NH  MOCLDY    26   9  48 W18G25    29.93R WCI  13          
NASHUA NH      FAIR      26  10  50 NW21G26   29.95R WCI  12          
PORTSMOUTH NH  MOCLDY    26  12  55 W17G26    29.89R WCI  14          
JAFFREY NH       N/A     22   9  57 NW9G18    29.91R WCI  12          
KEENE NH       FAIR      22  11  62 NW9G18    29.98R WCI  12          
BURLINGTON VT  MOCLDY    18   4  54 NW14G24   30.04R WCI   4          
MT. WASHINGTON SNOWSHWR  -8 -11  84 W83G94      N/A  VSB 1/16WCI -48  
$$

NYZ052-076-130200-
EASTERN NEW YORK
  
CITY           SKY/WX    TMP DP  RH WIND       PRES   REMARKS
ALBANY         FAIR      23   9  55 NW12      30.08R WCI  12          
NEW YORK CITY  FAIR      32  16  51 NW20G28   30.10R WCI  20          
$$
 
ANZALL-130200-
MARINE OBSERVATIONS
  
STATION/POSITION TIME  TEMP    WIND        PRES    VSBY  WAVE
                       AIR SEA DIR/SP/G                  HT/PER
                 (UTC) (F)     (DEG/KT/KT) (MB)    (MI)  (FT/S)
BOSTON BUOY      2350   33 53  310/ 25/ 31 1011.8          5/ 4
BUZZARDS BAY     0000          330/ 21/ 24 1013.7R
NANTUCKET SOUND  NOT AVBL
MASS BAY-STELLWA NOT AVBL
ISLE OF SHOALS   0000   29     300/ 30/ 35 1011.1R
S OF BLOCK IS    0030      58                N/A           8/ 5
$$

......................KEY.........................
  SKY/WX - SKY CONDITION/PRESENT WEATHER
  TMP    - TEMPERATURE IN FAHRENHEIT
  DWPT   - DEWPOINT IN FAHRENHEIT
  RH     - RELATIVE HUMIDITY IN PERCENT
  WIND   - DIRECTION AND SPEED IN MPH
  PRES   - MEAN SEA LEVEL PRESSURE IN INCHES OF HG
  WCI    - WIND CHILL INDEX
  VSB    - VISIBILITY IN MILES
  HX     - HEAT INDEX
  TC     - TEMPERATURE IN CELSIUS
  VRB    - VARIABLE WIND DIRECTION
  N/A    - NOT AVAILABLE
  
      

Other recent Regional Weather Roundups

Fri Nov 15, 2:10am

Fri Nov 15, 2:00am

Fri Nov 15, 1:10am

Fri Nov 15, 1:00am

Fri Nov 15, 12:10am

Fri Nov 15, 12:00am

Thu Nov 14, 11:10pm

Thu Nov 14, 11:00pm

Thu Nov 14, 10:10pm

Thu Nov 14, 10:00pm

Thu Nov 14, 9:10pm

Thu Nov 14, 9:00pm

Thu Nov 14, 8:10pm

Thu Nov 14, 8:00pm

Thu Nov 14, 7:10pm

Thu Nov 14, 7:00pm

Thu Nov 14, 6:10pm

Thu Nov 14, 6:01pm

Thu Nov 14, 5:10pm

Thu Nov 14, 5:00pm

Thu Nov 14, 4:10pm

Thu Nov 14, 4:00pm

Thu Nov 14, 3:10pm

Thu Nov 14, 3:00pm

Thu Nov 14, 2:10pm

Thu Nov 14, 2:00pm

Thu Nov 14, 1:10pm

Thu Nov 14, 1:00pm

Thu Nov 14, 12:10pm

Thu Nov 14, 12:01pm

Thu Nov 14, 11:10am

Thu Nov 14, 11:00am

Thu Nov 14, 10:10am

Thu Nov 14, 10:01am

Thu Nov 14, 9:10am

Thu Nov 14, 9:00am

Thu Nov 14, 8:10am

Thu Nov 14, 8:00am

Thu Nov 14, 7:10am

Thu Nov 14, 7:00am

Thu Nov 14, 6:10am

Thu Nov 14, 6:00am

Thu Nov 14, 5:10am

Thu Nov 14, 5:00am

Thu Nov 14, 4:10am

Thu Nov 14, 4:00am

Thu Nov 14, 3:10am

Thu Nov 14, 3:00am

Thu Nov 14, 2:10am

Thu Nov 14, 2:00am

Thu Nov 14, 1:10am

Thu Nov 14, 1:00am

Thu Nov 14, 12:10am

Thu Nov 14, 12:00am

Wed Nov 13, 11:10pm

Wed Nov 13, 11:00pm

Wed Nov 13, 10:10pm

Wed Nov 13, 10:00pm

Wed Nov 13, 9:10pm

Wed Nov 13, 9:00pm

Wed Nov 13, 8:10pm

Wed Nov 13, 8:00pm

Wed Nov 13, 7:10pm

Wed Nov 13, 7:00pm

Wed Nov 13, 6:10pm

Wed Nov 13, 6:01pm

Wed Nov 13, 5:10pm

Wed Nov 13, 5:00pm

Wed Nov 13, 4:10pm

Wed Nov 13, 4:00pm

Wed Nov 13, 3:10pm

Wed Nov 13, 3:01pm

Wed Nov 13, 2:10pm

Wed Nov 13, 2:01pm

Wed Nov 13, 1:10pm

Wed Nov 13, 1:00pm

Wed Nov 13, 12:10pm

Wed Nov 13, 12:01pm

Wed Nov 13, 11:10am

Wed Nov 13, 11:00am

Wed Nov 13, 10:10am

Wed Nov 13, 10:00am

Wed Nov 13, 9:10am

Wed Nov 13, 9:00am

Wed Nov 13, 8:10am

Wed Nov 13, 8:00am

Wed Nov 13, 7:10am

Wed Nov 13, 7:00am

Wed Nov 13, 6:10am

Wed Nov 13, 6:00am

Wed Nov 13, 5:10am

Wed Nov 13, 5:00am

Wed Nov 13, 4:10am

Wed Nov 13, 4:00am

Wed Nov 13, 3:10am

Wed Nov 13, 3:00am

Wed Nov 13, 2:10am

Wed Nov 13, 2:00am

Wed Nov 13, 1:10am

Wed Nov 13, 1:00am

Wed Nov 13, 12:10am

Wed Nov 13, 12:00am

Tue Nov 12, 11:10pm

Tue Nov 12, 11:00pm

Tue Nov 12, 10:10pm

Tue Nov 12, 10:00pm

Tue Nov 12, 9:10pm

Tue Nov 12, 9:00pm

Tue Nov 12, 8:10pm

Tue Nov 12, 7:10pm

Tue Nov 12, 7:01pm

Tue Nov 12, 6:10pm

Tue Nov 12, 6:01pm

Tue Nov 12, 5:10pm

Tue Nov 12, 5:01pm

Tue Nov 12, 4:10pm

Tue Nov 12, 4:01pm

Tue Nov 12, 3:10pm

Tue Nov 12, 3:00pm

Tue Nov 12, 2:10pm

Tue Nov 12, 2:00pm

Tue Nov 12, 1:10pm

Tue Nov 12, 1:00pm

Tue Nov 12, 12:10pm

Tue Nov 12, 12:00pm

Tue Nov 12, 11:10am

Tue Nov 12, 11:00am

Tue Nov 12, 10:10am

Tue Nov 12, 10:01am

Tue Nov 12, 9:10am

Tue Nov 12, 9:00am

Tue Nov 12, 8:10am

Tue Nov 12, 8:00am

Tue Nov 12, 7:10am

Tue Nov 12, 7:00am

Tue Nov 12, 6:10am

Tue Nov 12, 6:00am

Tue Nov 12, 5:10am

Tue Nov 12, 5:01am

Tue Nov 12, 4:10am

Tue Nov 12, 4:00am

Tue Nov 12, 3:10am

Tue Nov 12, 3:01am

Meta data:

ID: d74cb2b2-3394-448a-b9a0-d8e019d2cf80
Link: https://api.weather.gov/products/d74cb2b2-3394-448a-b9a0-d8e019d2cf80